Location: Eymir
(36.7333°N, 29.7833°E)
Time: 06:25:28
(UTC+00:00)

CUTE 1.7 + AOD 2 - Pass Details

Date: 25 May 2026
Orbit: 531 x 545 km, 97.8° (Epoch: 8 June)

Event Time Altitude Azimuth Distance (km) Brightness Sun altitude
Rises 01:37:58 0° 31° (NNE) 2,679 ? -12.4°
Reaches altitude 10° 01:40:40 10° 51° (NE) 1,784 ? -12.0°
Maximum altitude 01:43:17 18° 95° (E) 1,367 ? -11.6°
Drops below altitude 10° 01:45:55 10° 138° (SE) 1,778 ? -11.2°
Sets 01:48:34 0° 158° (SSE) 2,665 ? -10.7°
